Hourly Data Report for December 12, 2017

VICTORIA UNIVERSITY CS
BRITISH COLUMBIA

48°27'25.200" N
123°18'16.600" W
60.10 m
1018598
71783
WYJ

Download Data

Hourly Data (December 2017)
Hourly Data Report for December 12, 2017
TIME
LST
Temp Definition
°C
Dew Point Definition
°C
Rel Hum Definition
%
Precip. Amount Definition
mm

Wind Dir Definition
10's deg

Wind Spd Definition
km/h
Visibility Definition
km
Stn Press Definition
kPa
Hmdx Definition


Wind Chill Definition


Weather Definition


00:00 5.0 3.4 89 0.0 36 5   102.29     LegendNANA
01:00 3.2 2.0 92 0.0 34 5   102.33     LegendNANA
02:00 5.4 3.9 90 0.0 2 3   102.36     LegendNANA
03:00 4.7 3.5 92 0.0 0 1   102.36     LegendNANA
04:00 4.9 4.0 94 0.0 0 1   102.30     LegendNANA
05:00 5.3 4.5 94 0.0   0   102.33     LegendNANA
06:00 5.9 4.7 92 0.0 9 1   102.33     LegendNANA
07:00 6.3 5.0 92 0.0 0 1   102.39     LegendNANA
08:00 6.2 5.3 94 0.0 2 2   102.43     LegendNANA
09:00 6.5 5.1 91 0.0 4 1   102.48     LegendNANA
10:00 6.9 4.9 87 0.0 35 5   102.50     LegendNANA
11:00 7.5 4.8 83 0.0 35 5   102.52     LegendNANA
12:00 7.5 4.8 83 0.0 35 7   102.44     LegendNANA
13:00 8.2 3.9 74 0.0 36 9   102.36     LegendNANA
14:00 8.0 4.3 77 0.0 1 8   102.29     LegendNANA
15:00 7.5 4.0 78 0.0 36 8   102.29     LegendNANA
16:00 7.1 4.8 85 0.0 2 5   102.31     LegendNANA
17:00 6.1 4.1 88 0.0 1 2   102.30     LegendNANA
18:00 6.5 4.2 85 0.0 36 2   102.28     LegendNANA
19:00 5.1 3.7 90 0.0 36 1   102.27     LegendNANA
20:00 4.8 4.0 95 0.0 35 1   102.22     LegendNANA
21:00 5.5 4.6 94 0.0 33 3   102.26     LegendNANA
22:00 6.3 4.2 87 0.0 34 6   102.35     LegendNANA
23:00 6.3 4.3 87 0.0 36 4   102.34     LegendNANA

Notes on Data Quality.

Legend

  • E = Estimated
  • M = Missing
  • NA = Not Available*
  • [empty] = Indicates an unobserved value
Date modified: